| time (UTC) | temp F | wind direction | speed MPH | gust MPH | rain 1hr in | rain 24hr in | rain mn in | humidity % | barometer mb |
| 20260508055806 | 42 | 213 | 0.0 | 0.0 | 0.00 | 0.00 | 0.00 | 88 | 1015.5 |
| 20260508055048 | 42 | 213 | 0.0 | 0.0 | 0.00 | 0.00 | 0.00 | 88 | 1015.6 |
| 20260508054540 | 42 | 213 | 0.0 | 0.0 | 0.00 | 0.00 | 0.00 | 88 | 1015.6 |
| 20260508054038 | 42 | 213 | 0.0 | 0.0 | 0.00 | 0.00 | 0.00 | 87 | 1015.7 |
| 20260508053541 | 43 | 213 | 0.0 | 0.0 | 0.00 | 0.00 | 0.00 | 88 | 1015.8 |
| 20260508053033 | 42 | 213 | 0.0 | 0.0 | 0.00 | 0.00 | 0.00 | 87 | 1015.8 |
| 20260508052036 | 43 | 213 | 0.0 | 0.0 | 0.00 | 0.00 | 0.00 | 86 | 1015.8 |
| 20260508051528 | 43 | 213 | 0.0 | 0.0 | 0.00 | 0.00 | 0.00 | 86 | 1015.8 |
| 20260508051026 | 43 | 213 | 0.0 | 0.0 | 0.00 | 0.00 | 0.00 | 85 | 1015.9 |
| 20260508050525 | 44 | 213 | 0.0 | 0.0 | 0.00 | 0.00 | 0.00 | 85 | 1015.9 |
| 20260508050249 | 44 | 213 | 0.0 | 0.0 | 0.00 | 0.00 | 0.00 | 85 | 1015.9 |
| 20260508045519 | 44 | 213 | 0.0 | 0.0 | 0.00 | 0.00 | 0.00 | 85 | 1015.8 |
| 20260508045237 | 44 | 213 | 0.0 | 0.0 | 0.00 | 0.00 | 0.00 | 86 | 1015.8 |
| 20260508044741 | 43 | 213 | 0.0 | 0.0 | 0.00 | 0.00 | 0.00 | 86 | 1015.7 |
| 20260508044022 | 44 | 213 | 0.0 | 0.0 | 0.00 | 0.00 | 0.00 | 86 | 1015.7 |
| 20260508043737 | 44 | 213 | 0.0 | 0.0 | 0.00 | 0.00 | 0.00 | 85 | 1015.7 |
| 20260508043013 | 44 | 213 | 0.0 | 0.0 | 0.00 | 0.00 | 0.00 | 84 | 1015.6 |
| 20260508042515 | 44 | 213 | 0.0 | 0.0 | 0.00 | 0.00 | 0.00 | 84 | 1015.7 |
| 20260508042007 | 45 | 213 | 0.0 | 0.0 | 0.00 | 0.00 | 0.00 | 84 | 1015.7 |
| 20260508041507 | 45 | 213 | 0.0 | 0.0 | 0.00 | 0.00 | 0.00 | 84 | 1015.7 |
| 20260508041006 | 45 | 213 | 0.0 | 0.0 | 0.00 | 0.00 | 0.00 | 84 | 1015.6 |
| 20260508040503 | 45 | 213 | 0.0 | 0.0 | 0.00 | 0.00 | 0.00 | 84 | 1015.6 |
| 20260508040007 | 45 | 213 | 0.0 | 0.0 | 0.00 | 0.00 | 0.00 | 85 | 1015.7 |
| 20260508035501 | 45 | 213 | 0.0 | 0.0 | 0.00 | 0.00 | 0.00 | 84 | 1015.7 |
| 20260508035001 | 45 | 213 | 0.0 | 0.0 | 0.00 | 0.00 | 0.00 | 83 | 1015.7 |
| 20260508034457 | 45 | 213 | 0.0 | 0.0 | 0.00 | 0.00 | 0.00 | 83 | 1015.8 |
| 20260508033954 | 46 | 213 | 0.0 | 0.0 | 0.00 | 0.00 | 0.00 | 82 | 1015.8 |
| 20260508032951 | 45 | 213 | 0.0 | 0.0 | 0.00 | 0.00 | 0.00 | 83 | 1015.7 |
| 20260508032449 | 45 | 213 | 0.0 | 0.0 | 0.00 | 0.00 | 0.00 | 82 | 1015.7 |
| 20260508031949 | 46 | 213 | 0.0 | 0.0 | 0.00 | 0.00 | 0.00 | 82 | 1015.7 |
| 20260508031445 | 46 | 213 | 0.0 | 0.0 | 0.00 | 0.00 | 0.00 | 81 | 1015.8 |
| 20260508030942 | 46 | 213 | 0.0 | 0.0 | 0.00 | 0.00 | 0.00 | 81 | 1015.8 |
| 20260508030442 | 46 | 213 | 0.0 | 0.0 | 0.00 | 0.00 | 0.00 | 79 | 1015.8 |
| 20260508025941 | 47 | 213 | 0.0 | 0.0 | 0.00 | 0.00 | 0.00 | 79 | 1015.8 |
| 20260508025704 | 47 | 213 | 0.0 | 0.0 | 0.00 | 0.00 | 0.00 | 78 | 1015.8 |
| 20260508024942 | 47 | 213 | 0.0 | 0.0 | 0.00 | 0.00 | 0.00 | 78 | 1015.8 |
| 20260508024440 | 47 | 213 | 0.0 | 0.0 | 0.00 | 0.00 | 0.00 | 79 | 1015.8 |
| 20260508023938 | 48 | 213 | 0.0 | 0.0 | 0.00 | 0.00 | 0.00 | 77 | 1015.6 |
| 20260508023440 | 48 | 213 | 0.0 | 0.0 | 0.00 | 0.00 | 0.00 | 77 | 1015.7 |
| 20260508023204 | 48 | 213 | 0.0 | 0.0 | 0.00 | 0.00 | 0.00 | 77 | 1015.6 |
| 20260508022441 | 48 | 213 | 0.0 | 0.0 | 0.00 | 0.00 | 0.00 | 76 | 1015.5 |
| 20260508021938 | 49 | 213 | 0.0 | 0.0 | 0.00 | 0.00 | 0.00 | 74 | 1015.5 |
| 20260508021437 | 49 | 213 | 0.0 | 0.0 | 0.00 | 0.00 | 0.00 | 73 | 1015.4 |
| 20260508020936 | 50 | 213 | 0.0 | 0.0 | 0.00 | 0.00 | 0.00 | 72 | 1015.4 |
| 20260508020658 | 50 | 213 | 0.0 | 0.0 | 0.00 | 0.00 | 0.00 | 72 | 1015.3 |
| 20260508015933 | 50 | 213 | 0.0 | 0.0 | 0.00 | 0.00 | 0.00 | 72 | 1015.1 |
| 20260508015425 | 50 | 213 | 0.0 | 0.0 | 0.00 | 0.00 | 0.00 | 71 | 1015.0 |
| 20260508014925 | 51 | 213 | 0.0 | 0.0 | 0.00 | 0.00 | 0.00 | 72 | 1015.0 |
| 20260508014652 | 51 | 213 | 0.0 | 0.0 | 0.00 | 0.00 | 0.00 | 72 | 1014.9 |
| 20260508013924 | 51 | 213 | 0.0 | 0.0 | 0.00 | 0.00 | 0.00 | 72 | 1015.0 |
| 20260508013425 | 51 | 213 | 0.0 | 0.0 | 0.00 | 0.00 | 0.00 | 70 | 1014.9 |
| 20260508012924 | 52 | 213 | 0.0 | 0.0 | 0.00 | 0.00 | 0.00 | 68 | 1014.9 |
| 20260508012420 | 52 | 213 | 0.0 | 0.0 | 0.00 | 0.00 | 0.00 | 65 | 1014.9 |
| 20260508011917 | 53 | 213 | 0.0 | 0.0 | 0.00 | 0.00 | 0.00 | 65 | 1014.8 |
| 20260508011413 | 53 | 213 | 0.0 | 0.0 | 0.00 | 0.00 | 0.00 | 64 | 1014.6 |
| 20260508010914 | 54 | 213 | 0.0 | 0.0 | 0.00 | 0.00 | 0.00 | 63 | 1014.5 |
| 20260508010634 | 54 | 213 | 0.0 | 0.0 | 0.00 | 0.00 | 0.00 | 62 | 1014.4 |
| 20260508005913 | 55 | 213 | 0.0 | 0.0 | 0.00 | 0.00 | 0.00 | 61 | 1014.4 |
| 20260508005412 | 55 | 213 | 0.0 | 0.0 | 0.00 | 0.00 | 0.00 | 61 | 1014.4 |
| 20260508004908 | 56 | 213 | 0.0 | 0.0 | 0.00 | 0.00 | 0.00 | 59 | 1014.4 |
| 20260508003906 | 56 | 213 | 0.0 | 0.0 | 0.00 | 0.00 | 0.00 | 56 | 1014.2 |
| 20260508003405 | 56 | 213 | 0.0 | 0.0 | 0.00 | 0.00 | 0.00 | 57 | 1014.1 |
| 20260508002903 | 57 | 213 | 0.0 | 0.0 | 0.00 | 0.00 | 0.00 | 55 | 1014.1 |
| 20260508002404 | 57 | 213 | 0.0 | 0.0 | 0.00 | 0.00 | 0.00 | 51 | 1014.0 |
| 20260508001903 | 58 | 213 | 0.0 | 0.0 | 0.00 | 0.00 | 0.00 | 47 | 1014.0 |
| 20260508001357 | 58 | 213 | 0.0 | 0.0 | 0.00 | 0.00 | 0.00 | 45 | 1014.0 |
| 20260508000856 | 59 | 213 | 0.0 | 0.0 | 0.00 | 0.00 | 0.00 | 44 | 1014.0 |
| 20260508000357 | 59 | 213 | 0.0 | 0.0 | 0.00 | 0.00 | 0.00 | 45 | 1013.9 |
| 20260507235855 | 60 | 213 | 0.0 | 0.0 | 0.00 | 0.00 | 0.00 | 45 | 1013.9 |
| 20260507235350 | 60 | 213 | 0.0 | 0.0 | 0.00 | 0.00 | 0.00 | 42 | 1013.9 |
| 20260507235108 | 61 | 213 | 0.0 | 1.0 | 0.00 | 0.00 | 0.00 | 40 | 1013.9 |
| 20260507234344 | 61 | 213 | 0.0 | 1.0 | 0.00 | 0.00 | 0.00 | 37 | 1013.8 |
| 20260507233842 | 62 | 213 | 0.0 | 2.0 | 0.00 | 0.00 | 0.00 | 38 | 1013.8 |
| 20260507233344 | 62 | 213 | 0.0 | 2.0 | 0.00 | 0.00 | 0.00 | 36 | 1013.8 |
| 20260507232841 | 61 | 131 | 0.0 | 1.0 | 0.00 | 0.00 | 0.00 | 44 | 1013.9 |
| 20260507232339 | 62 | 131 | 0.0 | 1.0 | 0.00 | 0.00 | 0.00 | 42 | 1013.9 |
| 20260507231838 | 62 | 251 | 0.0 | 0.0 | 0.00 | 0.00 | 0.00 | 39 | 1013.9 |
| 20260507231348 | 62 | 252 | 0.0 | 2.0 | 0.00 | 0.00 | 0.00 | 39 | 1013.9 |
| 20260507230838 | 62 | 252 | 0.0 | 2.0 | 0.00 | 0.00 | 0.00 | 36 | 1014.0 |
| 20260507230336 | 62 | 250 | 0.0 | 2.0 | 0.00 | 0.00 | 0.00 | 37 | 1014.0 |
| 20260507230101 | 62 | 28 | 0.0 | 4.0 | 0.00 | 0.00 | 0.00 | 36 | 1014.0 |
| 20260507225333 | 63 | 264 | 1.0 | 4.0 | 0.00 | 0.00 | 0.00 | 40 | 1014.1 |
| 20260507224338 | 63 | 148 | 1.0 | 4.0 | 0.00 | 0.00 | 0.00 | 36 | 1014.1 |
| 20260507224106 | 63 | 196 | 0.0 | 3.0 | 0.00 | 0.00 | 0.00 | 35 | 1014.1 |
| 20260507223336 | 63 | 292 | 0.0 | 2.0 | 0.00 | 0.00 | 0.00 | 38 | 1014.1 |
| 20260507222831 | 64 | 291 | 0.0 | 6.0 | 0.00 | 0.00 | 0.00 | 38 | 1014.2 |
| 20260507222559 | 64 | 198 | 1.0 | 6.0 | 0.00 | 0.00 | 0.00 | 35 | 1014.2 |
| 20260507221833 | 64 | 261 | 1.0 | 6.0 | 0.00 | 0.00 | 0.00 | 33 | 1014.1 |
| 20260507221329 | 64 | 167 | 1.0 | 6.0 | 0.00 | 0.00 | 0.00 | 36 | 1014.0 |
| 20260507220832 | 64 | 244 | 1.0 | 6.0 | 0.00 | 0.00 | 0.00 | 32 | 1014.0 |
| 20260507220328 | 65 | 334 | 1.0 | 4.0 | 0.00 | 0.00 | 0.00 | 35 | 1014.0 |
| 20260507215828 | 64 | 271 | 1.0 | 4.0 | 0.00 | 0.00 | 0.00 | 35 | 1014.0 |
| 20260507215326 | 64 | 202 | 1.0 | 3.0 | 0.00 | 0.00 | 0.00 | 37 | 1013.9 |
| 20260507214824 | 64 | 293 | 1.0 | 5.0 | 0.00 | 0.00 | 0.00 | 37 | 1013.9 |
| 20260507214323 | 64 | 327 | 1.0 | 5.0 | 0.00 | 0.00 | 0.00 | 36 | 1014.0 |
| 20260507213820 | 63 | 314 | 1.0 | 5.0 | 0.00 | 0.00 | 0.00 | 37 | 1014.1 |
| 20260507213319 | 63 | 254 | 1.0 | 3.0 | 0.00 | 0.00 | 0.00 | 36 | 1014.1 |
| 20260507212822 | 63 | 36 | 1.0 | 3.0 | 0.00 | 0.00 | 0.00 | 37 | 1014.0 |
| 20260507212318 | 63 | 36 | 1.0 | 3.0 | 0.00 | 0.00 | 0.00 | 36 | 1014.1 |
| 20260507211817 | 64 | 271 | 1.0 | 7.0 | 0.00 | 0.00 | 0.00 | 38 | 1014.1 |
| 20260507211316 | 65 | 302 | 1.0 | 7.0 | 0.00 | 0.00 | 0.00 | 37 | 1014.1 |
| 20260507210817 | 65 | 245 | 1.0 | 4.0 | 0.00 | 0.00 | 0.00 | 34 | 1014.2 |
| 20260507210315 | 64 | 350 | 1.0 | 3.0 | 0.00 | 0.00 | 0.00 | 34 | 1014.1 |
| 20260507205815 | 63 | 40 | 1.0 | 5.0 | 0.00 | 0.00 | 0.00 | 37 | 1014.0 |
| 20260507205315 | 64 | 24 | 1.0 | 8.0 | 0.00 | 0.00 | 0.00 | 38 | 1014.1 |
| 20260507205035 | 65 | 5 | 1.0 | 8.0 | 0.00 | 0.00 | 0.00 | 35 | 1014.1 |
| 20260507204310 | 65 | 292 | 1.0 | 8.0 | 0.00 | 0.00 | 0.00 | 33 | 1014.1 |
| 20260507203812 | 64 | 256 | 1.0 | 8.0 | 0.00 | 0.00 | 0.00 | 36 | 1014.0 |
| 20260507203310 | 64 | 254 | 1.0 | 5.0 | 0.00 | 0.00 | 0.00 | 38 | 1014.1 |
| 20260507203040 | 64 | 346 | 1.0 | 3.0 | 0.00 | 0.00 | 0.00 | 35 | 1014.2 |
| 20260507202307 | 64 | 177 | 1.0 | 7.0 | 0.00 | 0.00 | 0.00 | 35 | 1014.1 |
| 20260507201806 | 64 | 263 | 1.0 | 7.0 | 0.00 | 0.00 | 0.00 | 33 | 1014.2 |
| 20260507201305 | 64 | 42 | 2.0 | 8.0 | 0.00 | 0.00 | 0.00 | 38 | 1014.3 |
| 20260507201023 | 65 | 216 | 1.0 | 8.0 | 0.00 | 0.00 | 0.00 | 34 | 1014.2 |
| 20260507200302 | 64 | 246 | 0.0 | 3.0 | 0.00 | 0.00 | 0.00 | 38 | 1014.2 |
| 20260507195804 | 64 | 287 | 1.0 | 4.0 | 0.00 | 0.00 | 0.00 | 40 | 1014.3 |
| 20260507195305 | 65 | 250 | 0.0 | 4.0 | 0.00 | 0.00 | 0.00 | 31 | 1014.3 |
| 20260507194803 | 64 | 229 | 0.0 | 2.0 | 0.00 | 0.00 | 0.00 | 33 | 1014.4 |
| 20260507194302 | 64 | 9 | 0.0 | 2.0 | 0.00 | 0.00 | 0.00 | 34 | 1014.4 |
| 20260507193806 | 63 | 5 | 1.0 | 5.0 | 0.00 | 0.00 | 0.00 | 34 | 1014.4 |
| 20260507193258 | 63 | 25 | 1.0 | 5.0 | 0.00 | 0.00 | 0.00 | 36 | 1014.5 |
| 20260507192758 | 63 | 245 | 1.0 | 4.0 | 0.00 | 0.00 | 0.00 | 35 | 1014.5 |
| 20260507192300 | 64 | 300 | 0.0 | 3.0 | 0.00 | 0.00 | 0.00 | 41 | 1014.5 |
| 20260507192018 | 63 | 285 | 0.0 | 2.0 | 0.00 | 0.00 | 0.00 | 38 | 1014.5 |
| 20260507191254 | 64 | 40 | 0.0 | 3.0 | 0.00 | 0.00 | 0.00 | 37 | 1014.6 |
| 20260507190755 | 64 | 219 | 1.0 | 7.0 | 0.00 | 0.00 | 0.00 | 35 | 1014.6 |
| 20260507190255 | 63 | 238 | 0.0 | 7.0 | 0.00 | 0.00 | 0.00 | 37 | 1014.6 |
| 20260507185758 | 64 | 197 | 0.0 | 7.0 | 0.00 | 0.00 | 0.00 | 37 | 1014.7 |
| 20260507185516 | 64 | 303 | 0.0 | 7.0 | 0.00 | 0.00 | 0.00 | 42 | 1014.7 |
| 20260507184744 | 63 | 38 | 1.0 | 4.0 | 0.00 | 0.00 | 0.00 | 39 | 1014.6 |
| 20260507184248 | 63 | 286 | 1.0 | 4.0 | 0.00 | 0.00 | 0.00 | 31 | 1014.7 |
| 20260507183743 | 64 | 272 | 1.0 | 9.0 | 0.00 | 0.00 | 0.00 | 36 | 1014.8 |
| 20260507183243 | 64 | 292 | 1.0 | 9.0 | 0.00 | 0.00 | 0.00 | 33 | 1014.9 |
| 20260507182740 | 63 | 324 | 1.0 | 6.0 | 0.00 | 0.00 | 0.00 | 34 | 1014.8 |
| 20260507182456 | 61 | 209 | 0.0 | 2.0 | 0.00 | 0.00 | 0.00 | 39 | 1014.8 |
| 20260507181737 | 61 | 208 | 1.0 | 5.0 | 0.00 | 0.00 | 0.00 | 33 | 1014.8 |
| 20260507181234 | 62 | 345 | 1.0 | 5.0 | 0.00 | 0.00 | 0.00 | 36 | 1014.8 |
| 20260507180735 | 62 | 343 | 1.0 | 8.0 | 0.00 | 0.00 | 0.00 | 31 | 1014.9 |
| 20260507180233 | 62 | 260 | 2.0 | 10.0 | 0.00 | 0.00 | 0.00 | 30 | 1014.9 |
| 20260507175728 | 62 | 351 | 1.0 | 10.0 | 0.00 | 0.00 | 0.00 | 33 | 1015.0 |
| 20260507175227 | 61 | 256 | 0.0 | 2.0 | 0.00 | 0.00 | 0.00 | 38 | 1015.0 |
| 20260507174728 | 62 | 247 | 1.0 | 5.0 | 0.00 | 0.00 | 0.00 | 38 | 1015.1 |
| 20260507174226 | 61 | 180 | 1.0 | 5.0 | 0.00 | 0.00 | 0.00 | 32 | 1015.3 |
| 20260507173727 | 61 | 138 | 1.0 | 6.0 | 0.00 | 0.00 | 0.00 | 31 | 1015.4 |
| 20260507173224 | 60 | 293 | 0.0 | 6.0 | 0.00 | 0.00 | 0.00 | 40 | 1015.4 |
| 20260507172723 | 60 | 303 | 0.0 | 2.0 | 0.00 | 0.00 | 0.00 | 33 | 1015.3 |
| 20260507171720 | 60 | 32 | 1.0 | 4.0 | 0.00 | 0.00 | 0.00 | 34 | 1015.6 |
| 20260507171220 | 60 | 30 | 1.0 | 6.0 | 0.00 | 0.00 | 0.00 | 37 | 1015.6 |
| 20260507170718 | 61 | 86 | 1.0 | 6.0 | 0.00 | 0.00 | 0.00 | 34 | 1015.7 |
| 20260507170219 | 60 | 350 | 0.0 | 3.0 | 0.00 | 0.00 | 0.00 | 36 | 1015.7 |
| 20260507165718 | 60 | 35 | 1.0 | 5.0 | 0.00 | 0.00 | 0.00 | 41 | 1015.7 |
| 20260507165220 | 60 | 259 | 1.0 | 6.0 | 0.00 | 0.00 | 0.00 | 37 | 1015.8 |
| 20260507164715 | 60 | 225 | 1.0 | 6.0 | 0.00 | 0.00 | 0.00 | 37 | 1015.9 |
| 20260507164215 | 60 | 223 | 1.0 | 12.0 | 0.00 | 0.00 | 0.00 | 37 | 1015.9 |
| 20260507163940 | 60 | 355 | 3.0 | 12.0 | 0.00 | 0.00 | 0.00 | 37 | 1016.0 |
| 20260507163211 | 60 | 229 | 2.0 | 12.0 | 0.00 | 0.00 | 0.00 | 35 | 1016.0 |
| 20260507162939 | 60 | 269 | 1.0 | 9.0 | 0.00 | 0.00 | 0.00 | 36 | 1016.2 |
| 20260507162211 | 60 | 317 | 2.0 | 9.0 | 0.00 | 0.00 | 0.00 | 37 | 1016.3 |
| 20260507161928 | 60 | 244 | 1.0 | 10.0 | 0.00 | 0.00 | 0.00 | 40 | 1016.2 |
| 20260507161208 | 60 | 286 | 1.0 | 10.0 | 0.00 | 0.00 | 0.00 | 38 | 1016.2 |
| 20260507160709 | 60 | 61 | 1.0 | 10.0 | 0.00 | 0.00 | 0.00 | 40 | 1016.1 |
| 20260507160204 | 59 | 144 | 1.0 | 10.0 | 0.00 | 0.00 | 0.00 | 39 | 1016.2 |
| 20260507155703 | 58 | 274 | 0.0 | 3.0 | 0.00 | 0.00 | 0.00 | 42 | 1016.2 |
| 20260507155203 | 58 | 56 | 0.0 | 3.0 | 0.00 | 0.00 | 0.00 | 42 | 1016.1 |
| 20260507154657 | 58 | 181 | 1.0 | 10.0 | 0.00 | 0.00 | 0.00 | 41 | 1016.2 |
| 20260507154202 | 58 | 263 | 1.0 | 10.0 | 0.00 | 0.00 | 0.00 | 41 | 1016.3 |
| 20260507153657 | 57 | 327 | 0.0 | 5.0 | 0.00 | 0.00 | 0.00 | 43 | 1016.2 |
| 20260507153429 | 57 | 300 | 0.0 | 3.0 | 0.00 | 0.00 | 0.00 | 45 | 1016.1 |
| 20260507152653 | 56 | 25 | 0.0 | 1.0 | 0.00 | 0.00 | 0.00 | 47 | 1016.1 |
| 20260507152151 | 56 | 24 | 0.0 | 8.0 | 0.00 | 0.00 | 0.00 | 50 | 1016.1 |
| 20260507151651 | 56 | 320 | 1.0 | 8.0 | 0.00 | 0.00 | 0.00 | 47 | 1016.2 |
| 20260507151149 | 55 | 334 | 0.0 | 3.0 | 0.00 | 0.00 | 0.00 | 46 | 1016.2 |
| 20260507150647 | 55 | 264 | 0.0 | 2.0 | 0.00 | 0.00 | 0.00 | 49 | 1016.2 |
| 20260507150147 | 55 | 344 | 0.0 | 2.0 | 0.00 | 0.00 | 0.00 | 50 | 1016.2 |
| 20260507145645 | 55 | 327 | 0.0 | 2.0 | 0.00 | 0.00 | 0.00 | 50 | 1016.2 |
| 20260507144643 | 54 | 69 | 0.0 | 3.0 | 0.00 | 0.00 | 0.00 | 50 | 1016.1 |
| 20260507144141 | 54 | 300 | 1.0 | 8.0 | 0.00 | 0.00 | 0.00 | 50 | 1016.2 |
| 20260507143636 | 53 | 274 | 1.0 | 8.0 | 0.00 | 0.00 | 0.00 | 49 | 1016.2 |
| 20260507143136 | 53 | 242 | 0.0 | 5.0 | 0.00 | 0.00 | 0.00 | 50 | 1016.2 |
| 20260507142635 | 53 | 30 | 0.0 | 3.0 | 0.00 | 0.00 | 0.00 | 53 | 1016.3 |
| 20260507142131 | 52 | 277 | 0.0 | 3.0 | 0.00 | 0.00 | 0.00 | 55 | 1016.3 |
| 20260507141627 | 52 | 348 | 0.0 | 0.0 | 0.00 | 0.00 | 0.00 | 57 | 1016.1 |
| 20260507141356 | 51 | 348 | 0.0 | 1.0 | 0.00 | 0.00 | 0.00 | 56 | 1016.1 |
| 20260507140624 | 51 | 348 | 0.0 | 1.0 | 0.00 | 0.00 | 0.00 | 58 | 1016.2 |
| 20260507140129 | 51 | 348 | 0.0 | 2.0 | 0.00 | 0.00 | 0.00 | 59 | 1016.2 |
| 20260507135847 | 50 | 348 | 0.0 | 3.0 | 0.00 | 0.00 | 0.00 | 60 | 1016.3 |
| 20260507135118 | 50 | 298 | 0.0 | 3.0 | 0.00 | 0.00 | 0.00 | 60 | 1016.3 |
| 20260507134622 | 49 | 48 | 0.0 | 1.0 | 0.00 | 0.00 | 0.00 | 65 | 1016.2 |
| 20260507134118 | 49 | 48 | 0.0 | 2.0 | 0.00 | 0.00 | 0.00 | 66 | 1016.2 |
| 20260507133617 | 48 | 48 | 0.0 | 2.0 | 0.00 | 0.00 | 0.00 | 73 | 1016.1 |
| 20260507133116 | 47 | 57 | 0.0 | 0.0 | 0.00 | 0.00 | 0.00 | 78 | 1016.2 |
| 20260507132609 | 47 | 57 | 0.0 | 0.0 | 0.00 | 0.00 | 0.00 | 81 | 1016.2 |
| 20260507132108 | 46 | 57 | 0.0 | 1.0 | 0.00 | 0.00 | 0.00 | 82 | 1016.3 |
| 20260507131609 | 46 | 57 | 0.0 | 1.0 | 0.00 | 0.00 | 0.00 | 85 | 1016.3 |
| 20260507131109 | 46 | 51 | 0.0 | 0.0 | 0.00 | 0.00 | 0.00 | 87 | 1016.2 |
| 20260507130612 | 45 | 51 | 0.0 | 0.0 | 0.00 | 0.00 | 0.00 | 88 | 1016.2 |
| 20260507130108 | 45 | 51 | 0.0 | 0.0 | 0.00 | 0.00 | 0.00 | 89 | 1016.3 |
| 20260507125824 | 44 | 51 | 0.0 | 0.0 | 0.00 | 0.00 | 0.00 | 90 | 1016.3 |
| 20260507125105 | 44 | 51 | 0.0 | 0.0 | 0.00 | 0.00 | 0.00 | 90 | 1016.3 |
| 20260507124601 | 44 | 51 | 0.0 | 0.0 | 0.00 | 0.00 | 0.00 | 90 | 1016.3 |
| 20260507124102 | 44 | 49 | 0.0 | 0.0 | 0.00 | 0.00 | 0.00 | 91 | 1016.2 |
| 20260507123602 | 43 | 49 | 0.0 | 0.0 | 0.00 | 0.00 | 0.00 | 90 | 1016.1 |
| 20260507123101 | 43 | 49 | 0.0 | 0.0 | 0.00 | 0.00 | 0.00 | 90 | 1016.2 |
| 20260507122604 | 43 | 49 | 0.0 | 0.0 | 0.00 | 0.00 | 0.00 | 90 | 1016.2 |
| 20260507122100 | 43 | 49 | 0.0 | 0.0 | 0.00 | 0.00 | 0.00 | 90 | 1016.2 |
| 20260507121826 | 43 | 49 | 0.0 | 0.0 | 0.00 | 0.00 | 0.00 | 90 | 1016.2 |
| 20260507121100 | 42 | 49 | 0.0 | 0.0 | 0.00 | 0.00 | 0.00 | 90 | 1016.3 |
| 20260507120558 | 42 | 49 | 0.0 | 0.0 | 0.00 | 0.00 | 0.00 | 90 | 1016.3 |
| 20260507120057 | 42 | 49 | 0.0 | 0.0 | 0.00 | 0.00 | 0.00 | 89 | 1016.4 |
| 20260507115556 | 42 | 49 | 0.0 | 0.0 | 0.00 | 0.00 | 0.00 | 89 | 1016.3 |
| 20260507115055 | 42 | 49 | 0.0 | 0.0 | 0.00 | 0.00 | 0.00 | 89 | 1016.3 |
| 20260507114836 | 42 | 49 | 0.0 | 0.0 | 0.00 | 0.00 | 0.00 | 89 | 1016.4 |
| 20260507114054 | 42 | 49 | 0.0 | 0.0 | 0.00 | 0.00 | 0.00 | 88 | 1016.4 |
| 20260507113555 | 42 | 49 | 0.0 | 0.0 | 0.00 | 0.00 | 0.00 | 88 | 1016.4 |
| 20260507113049 | 42 | 49 | 0.0 | 0.0 | 0.00 | 0.00 | 0.00 | 88 | 1016.4 |
| 20260507112548 | 42 | 49 | 0.0 | 0.0 | 0.00 | 0.00 | 0.00 | 88 | 1016.4 |
| 20260507112049 | 42 | 49 | 0.0 | 0.0 | 0.00 | 0.00 | 0.00 | 88 | 1016.4 |
| 20260507111550 | 42 | 49 | 0.0 | 0.0 | 0.00 | 0.00 | 0.00 | 88 | 1016.3 |
| 20260507111047 | 42 | 49 | 0.0 | 0.0 | 0.00 | 0.00 | 0.00 | 88 | 1016.2 |
| 20260507110541 | 42 | 49 | 0.0 | 0.0 | 0.00 | 0.00 | 0.00 | 88 | 1016.2 |
| 20260507110040 | 42 | 49 | 0.0 | 0.0 | 0.00 | 0.00 | 0.00 | 88 | 1016.1 |
| 20260507105540 | 42 | 49 | 0.0 | 0.0 | 0.00 | 0.00 | 0.00 | 88 | 1016.1 |
| 20260507105041 | 42 | 49 | 0.0 | 0.0 | 0.00 | 0.00 | 0.00 | 88 | 1016.0 |
| 20260507104539 | 42 | 49 | 0.0 | 0.0 | 0.00 | 0.00 | 0.00 | 88 | 1015.9 |
| 20260507104040 | 42 | 49 | 0.0 | 0.0 | 0.00 | 0.00 | 0.00 | 88 | 1015.8 |
| 20260507103540 | 42 | 49 | 0.0 | 0.0 | 0.00 | 0.00 | 0.00 | 88 | 1015.7 |
| 20260507103033 | 43 | 49 | 0.0 | 0.0 | 0.00 | 0.00 | 0.00 | 88 | 1015.7 |
| 20260507102535 | 43 | 49 | 0.0 | 0.0 | 0.00 | 0.00 | 0.00 | 88 | 1015.7 |
| 20260507102031 | 43 | 50 | 0.0 | 0.0 | 0.00 | 0.00 | 0.00 | 88 | 1015.6 |
| 20260507101525 | 43 | 50 | 0.0 | 0.0 | 0.00 | 0.00 | 0.00 | 88 | 1015.6 |
| 20260507101024 | 43 | 50 | 0.0 | 0.0 | 0.00 | 0.00 | 0.00 | 87 | 1015.7 |
| 20260507100523 | 43 | 50 | 0.0 | 0.0 | 0.00 | 0.00 | 0.00 | 87 | 1015.6 |
| 20260507100021 | 44 | 50 | 0.0 | 0.0 | 0.00 | 0.00 | 0.00 | 87 | 1015.6 |
| 20260507095520 | 44 | 50 | 0.0 | 0.0 | 0.00 | 0.00 | 0.00 | 87 | 1015.6 |
| 20260507095020 | 44 | 50 | 0.0 | 0.0 | 0.00 | 0.00 | 0.00 | 87 | 1015.5 |
| 20260507094739 | 44 | 50 | 0.0 | 0.0 | 0.00 | 0.00 | 0.00 | 87 | 1015.6 |
| 20260507094015 | 44 | 50 | 0.0 | 0.0 | 0.00 | 0.00 | 0.00 | 87 | 1015.5 |
| 20260507093515 | 44 | 50 | 0.0 | 0.0 | 0.00 | 0.00 | 0.00 | 87 | 1015.5 |
| 20260507093015 | 44 | 50 | 0.0 | 0.0 | 0.00 | 0.00 | 0.00 | 87 | 1015.5 |
| 20260507092515 | 44 | 50 | 0.0 | 0.0 | 0.00 | 0.00 | 0.00 | 87 | 1015.5 |
| 20260507092013 | 45 | 50 | 0.0 | 0.0 | 0.00 | 0.00 | 0.00 | 87 | 1015.4 |
| 20260507091521 | 45 | 50 | 0.0 | 0.0 | 0.00 | 0.00 | 0.00 | 87 | 1015.4 |
| 20260507091011 | 45 | 50 | 0.0 | 0.0 | 0.00 | 0.00 | 0.00 | 87 | 1015.4 |
| 20260507090514 | 45 | 50 | 0.0 | 0.0 | 0.00 | 0.00 | 0.00 | 87 | 1015.3 |
| 20260507090005 | 45 | 50 | 0.0 | 0.0 | 0.00 | 0.00 | 0.00 | 87 | 1015.3 |
| 20260507085503 | 45 | 50 | 0.0 | 0.0 | 0.00 | 0.00 | 0.00 | 87 | 1015.2 |
| 20260507085001 | 45 | 50 | 0.0 | 0.0 | 0.00 | 0.00 | 0.00 | 87 | 1015.1 |
| 20260507084500 | 46 | 50 | 0.0 | 0.0 | 0.00 | 0.00 | 0.00 | 87 | 1015.0 |
| 20260507083959 | 46 | 50 | 0.0 | 0.0 | 0.00 | 0.01 | 0.00 | 87 | 1015.0 |
| 20260507083457 | 46 | 50 | 0.0 | 0.0 | 0.00 | 0.01 | 0.00 | 87 | 1015.0 |
| 20260507082956 | 46 | 50 | 0.0 | 0.0 | 0.00 | 0.01 | 0.00 | 87 | 1014.9 |
| 20260507082456 | 46 | 50 | 0.0 | 0.0 | 0.00 | 0.01 | 0.00 | 87 | 1014.9 |
| 20260507081955 | 46 | 50 | 0.0 | 0.0 | 0.00 | 0.01 | 0.00 | 87 | 1014.8 |
| 20260507081454 | 46 | 50 | 0.0 | 0.0 | 0.00 | 0.01 | 0.00 | 87 | 1014.9 |
| 20260507081215 | 46 | 50 | 0.0 | 0.0 | 0.00 | 0.01 | 0.00 | 87 | 1014.9 |
| 20260507080459 | 46 | 50 | 0.0 | 0.0 | 0.00 | 0.01 | 0.00 | 87 | 1014.9 |
| 20260507075948 | 46 | 50 | 0.0 | 0.0 | 0.00 | 0.01 | 0.00 | 87 | 1014.9 |
| 20260507075446 | 46 | 50 | 0.0 | 0.0 | 0.00 | 0.01 | 0.00 | 87 | 1014.9 |
| 20260507074943 | 46 | 50 | 0.0 | 0.0 | 0.00 | 0.01 | 0.00 | 86 | 1014.8 |
| 20260507074443 | 46 | 50 | 0.0 | 0.0 | 0.00 | 0.01 | 0.00 | 86 | 1014.8 |
| 20260507073941 | 46 | 50 | 0.0 | 0.0 | 0.00 | 0.01 | 0.00 | 86 | 1014.7 |
| 20260507072941 | 47 | 50 | 0.0 | 0.0 | 0.00 | 0.01 | 0.00 | 86 | 1014.8 |
| 20260507072441 | 47 | 50 | 0.0 | 0.0 | 0.00 | 0.01 | 0.00 | 86 | 1014.8 |
| 20260507071944 | 47 | 50 | 0.0 | 0.0 | 0.00 | 0.01 | 0.00 | 86 | 1014.8 |
| 20260507071435 | 47 | 50 | 0.0 | 0.0 | 0.00 | 0.01 | 0.00 | 86 | 1014.7 |
| 20260507070934 | 47 | 50 | 0.0 | 0.0 | 0.00 | 0.02 | 0.00 | 86 | 1014.8 |
| 20260507070438 | 47 | 50 | 0.0 | 0.0 | 0.00 | 0.02 | 0.00 | 86 | 1014.8 |
| 20260507065934 | 47 | 50 | 0.0 | 0.0 | 0.00 | 0.04 | 0.00 | 86 | 1014.9 |
| 20260507065435 | 47 | 50 | 0.0 | 0.0 | 0.00 | 0.06 | 0.00 | 86 | 1014.7 |
| 20260507064934 | 47 | 50 | 0.0 | 0.0 | 0.00 | 0.07 | 0.00 | 86 | 1014.7 |
| 20260507064434 | 47 | 50 | 0.0 | 0.0 | 0.00 | 0.08 | 0.00 | 86 | 1015.0 |
| 20260507064200 | 48 | 50 | 0.0 | 0.0 | 0.00 | 0.09 | 0.00 | 86 | 1014.9 |
| 20260507063425 | 48 | 50 | 0.0 | 0.0 | 0.00 | 0.10 | 0.00 | 86 | 1014.8 |
| 20260507062924 | 48 | 50 | 0.0 | 0.0 | 0.00 | 0.11 | 0.00 | 86 | 1014.9 |
| 20260507062427 | 48 | 50 | 0.0 | 0.0 | 0.00 | 0.13 | 0.00 | 86 | 1015.0 |
| 20260507061923 | 48 | 50 | 0.0 | 0.0 | 0.00 | 0.15 | 0.00 | 86 | 1015.0 |
| 20260507061422 | 48 | 50 | 0.0 | 0.0 | 0.00 | 0.16 | 0.00 | 86 | 1015.1 |
| 20260507060923 | 48 | 50 | 0.0 | 0.0 | 0.00 | 0.16 | 0.00 | 86 | 1015.1 |
| 20260507060419 | 48 | 50 | 0.0 | 0.0 | 0.00 | 0.16 | 0.00 | 86 | 1014.9 |